DateTimeUTC,F1_A11,F1_S11,BsB_S11,BsG_S11,BsR_S11,BbsB_S11,BbsG_S11,BbsR_S11,BaB_A11,BaG_A11,BaR_A11,Tu_S11,T_S11,Uu_S11,U_S11,P_S11,T1_A11
2021-09-16T18:00:00Z,00000200,21000000,,,,,,,-000.22,-000.42,0000.24,18.4,25.7,,00.0,0658.6,31.1
2021-09-16T18:01:00Z,00000200,21000000,,,,,,,-000.05,0000.18,-000.09,18.4,25.7,,00.0,0658.6,31.1
2021-09-16T18:02:00Z,00000200,21000000,,,,,,,0000.03,0000.11,-000.03,18.4,25.7,,00.0,0658.6,31.1
2021-09-16T18:03:00Z,00000200,61000000,,,,,,,0000.10,-000.14,-000.16,18.4,25.7,,00.0,0658.6,31.1
2021-09-16T18:04:00Z,00000200,41000000,0004.64,0002.74,0001.66,0000.88,0000.37,0000.23,0000.06,0000.13,0000.26,18.6,25.5,,00.0,0659.5,31.1
2021-09-16T18:05:00Z,00000200,01000000,0004.69,0003.47,0001.62,0001.39,0000.26,0000.31,0000.20,0000.13,0000.28,18.7,25.4,,00.0,0659.6,31.1
2021-09-16T18:06:00Z,00000200,01000000,0004.64,0003.26,0001.32,0000.22,0000.56,0000.04,0000.28,0000.08,0000.08,18.7,25.4,,00.0,0659.6,31.1
2021-09-16T18:07:00Z,00000200,01000000,0004.42,0002.95,0001.88,0000.56,0000.36,0000.31,0000.25,0000.37,0000.14,18.7,25.4,,00.0,0659.6,31.1
2021-09-16T18:08:00Z,00000200,01000000,0004.52,0003.04,0001.30,0000.85,0000.32,0000.27,0000.16,0000.19,0000.10,18.7,25.4,,00.0,0659.6,31.1
2021-09-16T18:09:00Z,00000200,01000000,0004.31,0003.20,0001.36,0000.54,0000.34,0000.12,0000.76,0000.57,0000.59,18.7,25.4,,00.0,0659.6,31.1
2021-09-16T18:10:00Z,00000200,01000000,0004.28,0003.10,0001.80,0000.37,0000.34,0000.63,-000.14,0000.00,0000.16,18.7,25.4,,00.0,0659.6,31.1
2021-09-16T18:11:00Z,00000200,01000000,0004.93,0003.29,0001.64,0000.80,0000.45,0000.27,0000.03,0000.31,0000.14,18.8,25.4,,00.0,0659.6,31.1
2021-09-16T18:12:00Z,00000200,01000000,0005.55,0003.20,0002.08,0000.23,0000.55,0000.24,0000.11,-000.16,-000.11,18.8,25.5,,00.0,0659.6,31.1
2021-09-16T18:13:00Z,00000200,01000000,0004.89,0003.00,0001.92,0000.41,0000.31,0000.20,-000.06,-000.00,0000.15,18.8,25.4,,00.0,0659.6,31.1
2021-09-16T18:14:00Z,00000200,01000000,0004.57,0002.65,0001.52,0000.67,0000.08,0000.25,0000.57,0000.40,0000.41,18.8,25.4,,00.0,0659.6,31.1
2021-09-16T18:15:00Z,00000200,01000000,0004.10,0002.94,0001.54,0000.48,0000.21,0000.28,0000.04,-000.20,-000.17,18.8,25.5,,00.0,0659.6,31.1
2021-09-16T18:16:00Z,00000200,01000000,0003.41,0002.39,0000.90,0000.37,0000.40,0000.11,0000.41,0000.23,0000.32,18.8,25.5,,00.0,0659.6,31.1
2021-09-16T18:17:00Z,00000200,01000000,0004.51,0002.61,0001.55,0000.65,0000.51,0000.17,-000.13,0000.17,0000.13,18.8,25.5,,00.0,0659.6,31.1
2021-09-16T18:18:00Z,00000200,01000000,0004.37,0002.51,0001.35,0000.52,0000.44,-000.04,0000.36,0000.49,-000.07,18.8,25.5,,00.0,0659.6,31.1
2021-09-16T18:19:00Z,00000200,01000000,0003.30,0002.24,0001.30,0000.91,0000.49,0000.20,0000.13,-000.04,0000.19,18.8,25.5,,00.0,0659.6,31.1
2021-09-16T18:20:00Z,00000200,01000000,0004.16,0002.36,0001.19,0000.45,0000.07,-000.07,0000.26,0000.07,0000.20,18.8,25.5,,00.0,0659.6,31.1
2021-09-16T18:21:00Z,00000200,01000000,0004.10,0002.14,0001.32,0000.95,0000.31,0000.15,0000.01,0000.29,0000.05,18.8,25.5,,00.0,0659.6,31.1
2021-09-16T18:22:00Z,00000200,01000000,0004.15,0002.35,0001.27,0000.32,0000.21,0000.37,0000.19,0000.20,0000.39,18.8,25.4,,00.0,0659.6,31.1
2021-09-16T18:23:00Z,00000200,01000000,0004.26,0002.58,0001.19,0000.37,-000.11,0000.07,0000.36,0000.11,-000.02,18.8,25.4,,00.0,0659.6,31.1
2021-09-16T18:24:00Z,00000200,01000000,0003.63,0002.47,0000.88,0000.39,0000.14,0000.40,0000.23,0000.06,0000.24,18.7,25.4,,00.0,0659.6,31.1
2021-09-16T18:25:00Z,00000200,01000000,0003.80,0002.39,0001.65,0000.19,0000.48,0000.42,0000.46,0000.56,0000.29,18.7,25.4,,00.0,0659.6,31.1
2021-09-16T18:26:00Z,00000200,01000000,0004.36,0002.55,0001.07,0000.45,0000.46,-000.18,0000.25,-000.04,-000.14,18.7,25.4,,00.0,0659.6,31.1
2021-09-16T18:27:00Z,00000200,01000000,0004.51,0002.60,0001.50,0000.77,0000.31,0000.14,-000.13,0000.24,0000.53,18.7,25.4,,00.0,0659.6,31.1
2021-09-16T18:28:00Z,00000200,01000000,0004.83,0002.76,0001.08,0000.42,0000.57,0000.31,0000.90,0000.18,-000.28,18.7,25.4,,00.0,0659.6,31.1
2021-09-16T18:29:00Z,00000200,01000000,0003.90,0002.97,0001.52,0000.36,0000.48,0000.38,-000.10,0000.24,0000.08,18.7,25.4,,00.0,0659.6,31.1
2021-09-16T18:30:00Z,00000200,01000000,0005.30,0003.28,0001.55,0000.45,0000.46,0000.17,0000.06,0000.10,0000.45,18.7,25.4,,00.0,0659.6,31.1
2021-09-16T18:31:00Z,00000200,01000000,0004.74,0003.01,0001.97,0000.79,0000.40,0000.52,0000.15,0000.63,0000.17,18.6,25.4,,00.0,0659.6,31.1
2021-09-16T18:32:00Z,00000200,01000000,0006.06,0003.20,0002.01,0000.29,0000.31,-000.06,0000.36,-000.52,-000.20,18.6,25.4,,00.0,0659.6,31.1
2021-09-16T18:33:00Z,00000200,01000000,0005.40,0003.24,0002.13,0000.17,0000.38,0000.13,-000.21,0000.07,-000.03,18.6,25.4,,00.0,0659.6,31.1
2021-09-16T18:34:00Z,00000200,01000000,0005.62,0003.72,0002.33,0000.53,0000.57,0000.49,0000.29,0000.47,0000.36,18.6,25.4,,00.0,0659.6,31.1
2021-09-16T18:35:00Z,00000200,01000000,0005.89,0004.61,0001.95,0000.13,0000.18,0000.27,0000.34,0000.04,0000.28,18.6,25.4,,00.0,0659.6,31.1
2021-09-16T18:36:00Z,00000200,01000000,0006.00,0003.76,0001.84,0001.41,0000.31,0000.00,0000.41,0000.50,0000.35,18.6,25.4,,00.0,0659.6,31.1
2021-09-16T18:37:00Z,00000200,01000000,0005.48,0004.05,0002.54,0000.35,0000.28,0000.04,0000.22,-000.11,0000.09,18.6,25.3,,00.0,0659.6,31.1
2021-09-16T18:38:00Z,00000200,01000000,0005.43,0003.94,0002.44,0000.87,0000.35,0000.10,0000.30,0000.39,0000.07,18.6,25.3,,00.0,0659.6,31.1
2021-09-16T18:39:00Z,00000200,01000000,0006.34,0004.38,0002.42,0000.86,0000.51,0000.27,0000.22,0000.67,0000.70,18.5,25.3,,00.0,0659.6,31.1
2021-09-16T18:40:00Z,00000200,01000000,0006.46,0004.09,0002.45,0001.19,0000.75,-000.02,0000.50,0000.30,0000.30,18.5,25.3,,00.0,0659.6,31.1
2021-09-16T18:41:00Z,00000200,01000000,0005.07,0003.92,0001.80,0000.53,0000.61,0000.16,0000.50,0000.34,0000.19,18.6,25.3,,00.0,0659.7,31.1
2021-09-16T18:42:00Z,00000200,01000000,0006.25,0003.99,0002.31,0000.68,0000.47,0000.39,0000.44,0000.46,-000.03,18.7,25.4,,00.0,0659.7,31.1
2021-09-16T18:43:00Z,00000200,01000000,0005.01,0004.09,0002.29,0000.49,0000.22,-000.07,0000.05,0000.09,0000.47,18.8,25.5,,00.0,0659.7,31.1
2021-09-16T18:44:00Z,00000200,01000000,0005.42,0003.62,0001.99,0000.44,0000.20,0000.33,0000.37,0000.07,0000.21,18.9,25.5,,00.0,0659.7,31.1
2021-09-16T18:45:00Z,00000200,01000000,0004.62,0003.66,0002.03,0000.15,0000.34,0000.08,0000.47,0000.25,0000.11,18.9,25.5,,00.0,0659.7,31.1
2021-09-16T18:46:00Z,00000200,01000000,0004.80,0003.46,0001.94,0000.51,0000.41,0000.12,-000.11,0000.62,0000.02,18.9,25.5,,00.0,0659.7,31.1
2021-09-16T18:47:00Z,00000200,01000000,0004.85,0003.23,0001.93,0001.20,0000.40,0000.14,0000.46,0000.06,0000.23,18.9,25.5,,00.0,0659.7,31.1
2021-09-16T18:48:00Z,00000200,01000000,0005.00,0002.95,0001.82,-000.17,0000.24,0000.05,0000.30,0000.43,0000.53,18.8,25.5,,00.0,0659.7,31.1
2021-09-16T18:49:00Z,00000200,01000000,0004.59,0003.26,0001.59,0000.26,0000.66,0000.07,0000.30,-000.30,-000.14,18.8,25.5,,00.0,0659.7,31.1
2021-09-16T18:50:00Z,00000200,01000000,0004.12,0002.69,0001.50,0001.12,0000.61,0000.03,0000.14,0000.43,0000.27,18.8,25.5,,00.0,0659.7,31.1
2021-09-16T18:51:00Z,00000200,01000000,0004.36,0002.74,0001.37,0000.18,0000.08,0000.11,0000.14,0000.23,0000.04,18.8,25.5,,00.0,0659.7,31.1
2021-09-16T18:52:00Z,00000200,01000000,0003.50,0002.50,0001.45,0000.77,0000.40,-000.19,0000.54,0000.06,0000.18,18.8,25.5,,00.0,0659.7,31.1
2021-09-16T18:53:00Z,00000200,01000000,0003.48,0002.16,0001.13,0000.34,0000.37,0000.18,0000.41,0000.70,0000.20,18.7,25.5,,00.0,0659.7,31.1
2021-09-16T18:54:00Z,00000200,01000000,0003.63,0002.07,0000.88,-000.17,0000.35,0000.16,0000.34,-000.06,0000.49,18.7,25.5,,00.0,0659.7,31.1
2021-09-16T18:55:00Z,00000200,01000000,0003.03,0001.71,0000.98,0000.24,0000.25,0000.27,0000.65,0000.52,0000.32,18.7,25.5,,00.0,0659.7,31.1
2021-09-16T18:56:00Z,00000200,01000000,0002.94,0001.69,0000.60,0000.02,0000.36,-000.04,0000.04,0000.23,-000.08,18.8,25.5,,00.0,0659.7,31.1
2021-09-16T18:57:00Z,00000200,41000000,,,,,,,0001.24,0001.37,0001.19,18.9,25.6,,00.0,0659.7,31.1
2021-09-16T18:58:00Z,00000200,61000000,,,,,,,-000.39,-000.75,-000.53,18.5,25.7,,00.0,0658.7,31.1
2021-09-16T18:59:00Z,00000200,21000000,,,,,,,-000.54,-000.11,-000.27,18.5,25.8,,00.0,0658.7,31.1
